| time (UTC) | temp F | wind direction | speed knots | gust knots | rain 1hr in | rain 24hr in | rain mn in | humidity % | barometer mb |
| 20260507073024 | 53 | 294 | 2.6 | 5.2 | 0.00 | 0.00 | 0.00 | 77 | 1022.1 |
| 20260507071528 | 53 | 351 | 0.9 | 5.2 | 0.00 | 0.00 | 0.00 | 77 | 1022.0 |
| 20260507070026 | 53 | 324 | 1.7 | 7.8 | 0.00 | 0.00 | 0.00 | 77 | 1021.9 |
| 20260507064550 | 53 | 280 | 0.9 | 7.8 | 0.00 | 0.00 | 0.00 | 77 | 1022.0 |
| 20260507063034 | 53 | 306 | 4.3 | 7.8 | 0.00 | 0.00 | 0.00 | 77 | 1022.1 |
| 20260507061529 | 53 | 347 | 3.5 | 7.8 | 0.00 | 0.00 | 0.00 | 78 | 1022.2 |
| 20260507060029 | 53 | 317 | 3.5 | 9.6 | 0.00 | 0.00 | 0.00 | 78 | 1022.1 |
| 20260507054525 | 53 | 328 | 4.3 | 9.6 | 0.00 | 0.00 | 0.00 | 78 | 1022.1 |
| 20260507053025 | 53 | 325 | 5.2 | 8.7 | 0.00 | 0.00 | 0.00 | 78 | 1022.2 |
| 20260507051522 | 53 | 5 | 2.6 | 7.8 | 0.00 | 0.00 | 0.00 | 79 | 1022.2 |
| 20260507050038 | 53 | 309 | 1.7 | 7.8 | 0.00 | 0.00 | 0.00 | 78 | 1022.2 |
| 20260507044513 | 54 | 9 | 3.5 | 7.8 | 0.00 | 0.00 | 0.00 | 78 | 1022.2 |
| 20260507043010 | 54 | 9 | 4.3 | 9.6 | 0.00 | 0.00 | 0.00 | 77 | 1022.2 |
| 20260507041520 | 55 | 351 | 5.2 | 13.0 | 0.00 | 0.00 | 0.00 | 76 | 1022.0 |
| 20260507040011 | 55 | 334 | 4.3 | 13.9 | 0.00 | 0.00 | 0.00 | 76 | 1022.0 |
| 20260507034508 | 55 | 304 | 5.2 | 12.2 | 0.00 | 0.00 | 0.00 | 75 | 1021.8 |
| 20260507033025 | 56 | 343 | 5.2 | 15.6 | 0.00 | 0.00 | 0.00 | 75 | 1021.7 |
| 20260507031520 | 56 | 352 | 4.3 | 14.8 | 0.00 | 0.00 | 0.00 | 74 | 1021.5 |
| 20260507030025 | 57 | 11 | 5.2 | 9.6 | 0.00 | 0.00 | 0.00 | 75 | 1021.3 |
| 20260507024519 | 57 | 325 | 5.2 | 10.4 | 0.00 | 0.00 | 0.00 | 74 | 1021.1 |
| 20260507023008 | 58 | 324 | 6.1 | 13.0 | 0.00 | 0.00 | 0.00 | 73 | 1021.0 |
| 20260507021515 | 59 | 9 | 4.3 | 10.4 | 0.00 | 0.00 | 0.00 | 73 | 1021.0 |
| 20260507020012 | 59 | 9 | 3.5 | 10.4 | 0.00 | 0.00 | 0.00 | 74 | 1021.1 |
| 20260507014514 | 60 | 315 | 1.7 | 9.6 | 0.00 | 0.00 | 0.00 | 73 | 1021.2 |
| 20260507013018 | 60 | 331 | 4.3 | 12.2 | 0.00 | 0.00 | 0.00 | 72 | 1021.3 |
| 20260507011517 | 61 | 5 | 7.0 | 11.3 | 0.00 | 0.00 | 0.00 | 71 | 1021.3 |
| 20260507010015 | 61 | 340 | 6.1 | 11.3 | 0.00 | 0.00 | 0.00 | 70 | 1021.3 |
| 20260507004526 | 62 | 360 | 6.1 | 11.3 | 0.00 | 0.00 | 0.00 | 71 | 1021.1 |
| 20260507003023 | 63 | 360 | 6.1 | 10.4 | 0.00 | 0.00 | 0.00 | 69 | 1021.0 |
| 20260507001520 | 63 | 350 | 3.5 | 8.7 | 0.00 | 0.00 | 0.00 | 69 | 1021.0 |
| 20260507000017 | 63 | 9 | 3.5 | 10.4 | 0.00 | 0.00 | 0.00 | 67 | 1021.0 |
| 20260506234517 | 64 | 333 | 5.2 | 8.7 | 0.00 | 0.00 | 0.00 | 68 | 1021.0 |
| 20260506233022 | 65 | 310 | 4.3 | 9.6 | 0.00 | 0.00 | 0.00 | 70 | 1020.9 |
| 20260506231514 | 65 | 302 | 1.7 | 7.0 | 0.00 | 0.00 | 0.00 | 69 | 1021.0 |
| 20260506230029 | 65 | 333 | 2.6 | 6.1 | 0.00 | 0.00 | 0.00 | 68 | 1021.0 |
| 20260506224532 | 65 | 337 | 2.6 | 7.0 | 0.00 | 0.00 | 0.00 | 71 | 1021.0 |
| 20260506223022 | 64 | 55 | 2.6 | 4.3 | 0.00 | 0.00 | 0.00 | 72 | 1021.3 |
| 20260506221522 | 64 | 63 | 2.6 | 6.1 | 0.00 | 0.00 | 0.00 | 74 | 1021.3 |
| 20260506220023 | 64 | 298 | 0.0 | 4.3 | 0.00 | 0.00 | 0.00 | 72 | 1021.3 |
| 20260506214516 | 63 | 334 | 0.9 | 7.0 | 0.00 | 0.00 | 0.00 | 73 | 1021.4 |
| 20260506213030 | 63 | 71 | 2.6 | 6.1 | 0.00 | 0.00 | 0.00 | 74 | 1021.4 |
| 20260506211530 | 63 | 13 | 1.7 | 3.5 | 0.00 | 0.00 | 0.00 | 72 | 1021.4 |
| 20260506210031 | 62 | 327 | 1.7 | 4.3 | 0.00 | 0.00 | 0.00 | 76 | 1021.7 |
| 20260506204532 | 62 | 41 | 0.9 | 3.5 | 0.00 | 0.00 | 0.00 | 74 | 1021.7 |
| 20260506203023 | 61 | 289 | 0.9 | 2.6 | 0.00 | 0.00 | 0.00 | 75 | 1021.8 |
| 20260506201529 | 61 | 300 | 0.0 | 2.6 | 0.00 | 0.00 | 0.00 | 74 | 1021.6 |
| 20260506200019 | 61 | 32 | 0.9 | 2.6 | 0.00 | 0.00 | 0.00 | 74 | 1021.6 |
| 20260506194519 | 59 | 148 | 0.9 | 2.6 | 0.00 | 0.00 | 0.00 | 77 | 1021.8 |
| 20260506193026 | 59 | 276 | 0.0 | 2.6 | 0.00 | 0.00 | 0.00 | 80 | 1021.9 |
| 20260506191526 | 58 | 311 | 0.9 | 2.6 | 0.00 | 0.00 | 0.00 | 80 | 1022.1 |
| 20260506190030 | 58 | 311 | 0.9 | 1.7 | 0.00 | 0.00 | 0.00 | 81 | 1022.0 |
| 20260506184526 | 58 | 229 | 0.9 | 1.7 | 0.00 | 0.00 | 0.00 | 80 | 1021.9 |
| 20260506183023 | 58 | 250 | 1.7 | 2.6 | 0.00 | 0.00 | 0.00 | 80 | 1021.8 |
| 20260506181526 | 58 | 5 | 0.0 | 1.7 | 0.00 | 0.00 | 0.00 | 80 | 1021.7 |
| 20260506180031 | 58 | 283 | 0.0 | 2.6 | 0.00 | 0.00 | 0.00 | 79 | 1021.8 |
| 20260506174532 | 57 | 209 | 0.9 | 1.7 | 0.00 | 0.00 | 0.00 | 81 | 1021.7 |
| 20260506173029 | 57 | 289 | 0.9 | 4.3 | 0.00 | 0.00 | 0.00 | 79 | 1021.6 |
| 20260506171538 | 57 | 360 | 1.7 | 2.6 | 0.00 | 0.00 | 0.00 | 79 | 1021.5 |
| 20260506170026 | 57 | 319 | 0.9 | 2.6 | 0.00 | 0.00 | 0.00 | 81 | 1021.6 |
| 20260506164505 | 56 | 270 | 1.7 | 3.5 | 0.00 | 0.00 | 0.00 | 80 | 1021.5 |
| 20260506163010 | 55 | 316 | 0.9 | 2.6 | 0.00 | 0.00 | 0.00 | 81 | 1021.7 |
| 20260506161509 | 55 | 311 | 1.7 | 4.3 | 0.00 | 0.00 | 0.00 | 81 | 1021.6 |
| 20260506160005 | 55 | 98 | 0.0 | 2.6 | 0.00 | 0.00 | 0.00 | 82 | 1021.2 |
| 20260506154504 | 55 | 68 | 0.9 | 2.6 | 0.00 | 0.00 | 0.00 | 81 | 1020.9 |
| 20260506153010 | 54 | 20 | 0.9 | 6.1 | 0.00 | 0.00 | 0.00 | 82 | 1020.7 |
| 20260506151507 | 54 | 16 | 1.7 | 5.2 | 0.00 | 0.00 | 0.00 | 83 | 1021.1 |
| 20260506150005 | 54 | 5 | 0.9 | 3.5 | 0.00 | 0.00 | 0.00 | 84 | 1021.4 |
| 20260506144516 | 54 | 24 | 3.5 | 7.8 | 0.00 | 0.00 | 0.00 | 84 | 1021.3 |
| 20260506143012 | 54 | 352 | 1.7 | 7.8 | 0.00 | 0.00 | 0.00 | 84 | 1021.0 |
| 20260506141509 | 54 | 352 | 1.7 | 4.3 | 0.00 | 0.00 | 0.00 | 85 | 1020.8 |
| 20260506140016 | 54 | 315 | 3.5 | 5.2 | 0.00 | 0.00 | 0.00 | 85 | 1020.5 |
| 20260506134504 | 53 | 329 | 2.6 | 4.3 | 0.00 | 0.00 | 0.00 | 86 | 1020.6 |
| 20260506133006 | 53 | 336 | 1.7 | 4.3 | 0.00 | 0.00 | 0.00 | 86 | 1020.4 |
| 20260506131522 | 53 | 326 | 1.7 | 3.5 | 0.00 | 0.00 | 0.00 | 86 | 1020.3 |
| 20260506130022 | 53 | 340 | 0.9 | 7.0 | 0.00 | 0.00 | 0.00 | 86 | 1020.0 |
| 20260506124522 | 53 | 325 | 3.5 | 7.0 | 0.00 | 0.00 | 0.00 | 86 | 1020.0 |
| 20260506123016 | 54 | 17 | 0.9 | 1.7 | 0.00 | 0.00 | 0.00 | 86 | 1019.8 |
| 20260506121512 | 54 | 11 | 0.9 | 2.6 | 0.00 | 0.00 | 0.00 | 86 | 1019.8 |
| 20260506120011 | 54 | 326 | 2.6 | 4.3 | 0.00 | 0.00 | 0.00 | 85 | 1019.8 |
| 20260506114522 | 54 | 295 | 1.7 | 4.3 | 0.00 | 0.00 | 0.00 | 85 | 1019.7 |
| 20260506113024 | 54 | 31 | 2.6 | 4.3 | 0.00 | 0.00 | 0.00 | 85 | 1019.5 |
| 20260506111525 | 54 | 259 | 2.6 | 5.2 | 0.00 | 0.00 | 0.00 | 85 | 1019.4 |
| 20260506110021 | 55 | 274 | 2.6 | 5.2 | 0.00 | 0.00 | 0.00 | 84 | 1019.3 |
| 20260506104516 | 55 | 329 | 1.7 | 4.3 | 0.00 | 0.00 | 0.00 | 84 | 1019.1 |
| 20260506103012 | 55 | 341 | 3.5 | 6.1 | 0.00 | 0.00 | 0.00 | 84 | 1019.0 |
| 20260506101508 | 55 | 340 | 0.9 | 4.3 | 0.00 | 0.00 | 0.00 | 84 | 1018.9 |
| 20260506100020 | 55 | 318 | 1.7 | 4.3 | 0.00 | 0.00 | 0.00 | 84 | 1018.7 |
| 20260506094507 | 55 | 13 | 1.7 | 6.1 | 0.00 | 0.00 | 0.00 | 83 | 1018.6 |
| 20260506093027 | 55 | 325 | 1.7 | 4.3 | 0.00 | 0.00 | 0.00 | 84 | 1018.5 |
| 20260506091521 | 55 | 349 | 2.6 | 4.3 | 0.00 | 0.00 | 0.00 | 83 | 1018.5 |
| 20260506090021 | 55 | 348 | 0.9 | 3.5 | 0.00 | 0.00 | 0.00 | 83 | 1018.5 |
| 20260506084514 | 55 | 360 | 1.7 | 3.5 | 0.00 | 0.00 | 0.00 | 83 | 1018.5 |
| 20260506083020 | 55 | 306 | 2.6 | 5.2 | 0.00 | 0.00 | 0.00 | 82 | 1018.5 |
| 20260506081517 | 55 | 352 | 1.7 | 4.3 | 0.00 | 0.00 | 0.00 | 82 | 1018.5 |